period_start,C,m1,H,J0,J1,J2,J3,J4,J5,JA,JB,JC,JD,JJ,JK,JN,#
2015-04-27 00:00:56,0.15,2.22,0.00,23.60,26.99,29.63,4.80,26.59,1010.76,2033.04,2598.95,2716.10,2947.43,350.60,345.58,20.64,0000 0000 0000 0000 000000
2015-04-27 00:05:57,0.15,2.23,0.00,23.59,27.00,29.65,4.80,26.56,1010.76,2033.04,2597.60,2715.05,2946.30,350.24,345.11,20.67,0000 0000 0000 0000 000000
2015-04-27 00:10:59,0.13,2.23,0.00,23.56,27.00,29.64,4.73,26.52,1010.76,2033.02,2596.25,2713.98,2945.15,349.95,344.88,20.70,0000 0000 0000 0000 000000
2015-04-27 00:16:00,0.15,2.24,0.00,23.51,27.00,29.61,4.75,26.54,1010.76,2033.03,2594.82,2712.96,2944.04,349.30,344.45,20.73,0000 0000 0000 0000 000000
2015-04-27 00:21:02,0.16,2.24,0.00,23.50,27.00,29.67,4.76,26.52,1010.76,2033.03,2593.49,2711.87,2942.88,349.66,344.80,20.76,0000 0000 0000 0000 000000
2015-04-27 00:26:03,0.15,2.24,0.00,23.51,27.02,29.68,4.76,26.57,1010.76,2033.01,2592.04,2710.81,2941.71,350.52,345.58,20.79,0000 0000 0000 0000 000000
2015-04-27 00:31:04,0.15,2.25,0.00,23.50,27.02,29.66,4.76,26.66,1010.76,2033.01,2590.69,2709.83,2940.61,350.52,345.65,20.82,0000 0000 0000 0000 000000
2015-04-27 00:36:06,0.14,2.25,0.00,23.51,27.02,29.67,4.77,26.63,1010.76,2033.00,2589.44,2708.77,2939.61,350.55,345.63,20.85,0000 0000 0000 0000 000000
2015-04-27 00:41:07,0.13,2.26,0.00,23.43,27.02,29.73,4.73,26.60,1010.75,2033.00,2588.01,2707.82,2938.46,350.00,345.08,20.88,0000 0000 0000 0000 000000
2015-04-27 00:46:09,0.13,2.26,0.00,23.24,27.02,29.85,4.73,26.62,1010.68,2033.00,2586.78,2706.89,2937.44,349.88,345.18,20.91,0000 0000 0000 0000 000000
2015-04-27 00:51:10,0.14,2.27,0.00,23.21,27.03,29.86,4.74,26.57,1010.51,2033.00,2585.51,2705.92,2936.38,350.04,345.61,20.93,0000 0000 0000 0000 000000
2015-04-27 00:56:11,0.13,2.27,0.00,23.16,27.03,29.93,4.79,26.59,1010.48,2033.00,2584.21,2704.92,2935.32,350.52,345.89,20.96,0000 0000 0000 0000 000000
2015-04-27 01:01:12,0.12,2.27,0.00,23.35,27.03,29.86,4.77,26.50,1010.36,2033.00,2583.00,2704.03,2934.30,350.19,345.42,20.99,0000 0000 0000 0000 000000
2015-04-27 01:06:13,0.14,2.28,0.00,23.64,27.05,29.85,4.72,26.52,1010.31,2033.00,2581.84,2703.14,2933.39,350.33,345.19,21.02,0000 0000 0000 0000 000000
2015-04-27 01:11:14,0.14,2.28,0.00,23.71,27.05,29.83,4.70,26.53,1010.29,2033.00,2580.60,2702.17,2932.33,349.93,344.30,21.05,0000 0000 0000 0000 000000
2015-04-27 01:16:16,0.13,2.29,0.00,23.71,27.05,29.84,4.73,26.45,1010.29,2033.00,2579.34,2701.20,2931.26,350.25,344.82,21.08,0000 0000 0000 0000 000000
2015-04-27 01:21:17,0.14,2.29,0.00,23.56,27.06,29.89,4.71,26.66,1010.33,2033.00,2577.97,2700.26,2930.23,349.44,344.34,21.11,0000 0000 0000 0000 000000
2015-04-27 01:26:18,0.14,2.29,0.00,23.42,27.07,29.97,4.75,26.44,1010.33,2033.00,2576.64,2699.36,2929.22,349.55,344.57,21.14,0000 0000 0000 0000 000000
2015-04-27 01:31:19,0.14,2.30,0.00,23.39,27.07,29.96,4.75,26.45,1010.32,2033.00,2575.30,2698.32,2928.10,349.76,344.81,21.17,0000 0000 0000 0000 000000
2015-04-27 01:36:20,0.15,2.30,0.00,23.34,27.07,29.94,4.75,26.52,1010.31,2032.99,2573.86,2697.29,2926.94,349.93,345.21,21.20,0000 0000 0000 0000 000000
2015-04-27 01:41:21,0.13,2.31,0.00,23.40,27.07,29.93,4.72,26.48,1010.33,2032.98,2572.63,2696.22,2925.89,350.22,345.27,21.23,0000 0000 0000 0000 000000
2015-04-27 01:46:23,0.13,2.31,0.00,23.75,27.07,29.90,4.71,26.45,1010.36,2032.97,2571.47,2695.36,2924.87,349.75,344.53,21.26,0000 0000 0000 0000 000000
2015-04-27 01:51:24,0.13,2.31,0.00,23.82,27.09,29.89,4.71,26.46,1010.57,2032.98,2570.21,2694.37,2923.80,350.18,344.85,21.29,0000 0000 0000 0000 000000
2015-04-27 01:56:25,0.16,2.32,0.00,23.78,27.10,29.91,4.75,26.49,1010.64,2032.98,2568.78,2693.38,2922.70,349.79,344.67,21.32,0000 0000 0000 0000 000000
2015-04-27 02:01:26,0.15,2.32,0.00,23.64,27.11,29.98,4.81,26.66,1010.55,2032.98,2567.27,2692.25,2921.52,349.71,344.58,21.35,0000 0000 0000 0000 000000
2015-04-27 02:06:28,0.25,2.33,0.00,23.57,27.12,30.00,4.79,26.45,1010.49,2032.98,2565.28,2690.73,2919.91,350.10,345.02,21.37,0000 0000 0000 0000 000000
2015-04-27 02:11:29,0.27,2.34,0.00,23.55,27.12,29.99,4.71,26.43,1010.39,2032.96,2562.83,2688.89,2917.83,350.07,345.02,21.40,0000 0000 0000 0000 000000
2015-04-27 02:16:30,0.24,2.35,0.00,23.51,27.12,30.01,4.73,26.39,1010.36,2032.93,2560.38,2687.17,2915.88,349.75,344.70,21.43,0000 0000 0000 0000 000000
2015-04-27 02:21:32,0.23,2.35,0.00,23.47,27.12,29.99,4.72,26.41,1010.30,2032.95,2558.42,2685.67,2914.08,350.02,344.91,21.46,0000 0000 0000 0000 000000
2015-04-27 02:26:33,0.18,2.36,0.00,23.47,27.12,30.00,4.78,26.50,1010.29,2032.93,2556.62,2684.44,2912.75,349.92,344.94,21.49,0000 0000 0000 0000 000000
2015-04-27 02:31:34,0.17,2.36,0.00,23.45,27.13,30.00,4.76,26.51,1010.30,2032.96,2554.82,2683.37,2911.59,349.95,344.93,21.52,0000 0000 0000 0000 000000
2015-04-27 02:36:36,0.10,2.37,0.00,23.45,27.13,29.99,4.76,26.51,1010.28,2032.80,2553.17,2682.29,2910.42,349.77,344.80,21.55,0000 0000 0000 0000 000000
2015-04-27 02:41:37,0.14,2.37,0.00,23.47,27.13,29.99,4.74,26.38,1010.27,2032.91,2552.06,2681.73,2909.73,349.39,344.29,21.58,0000 0000 0000 0000 000000
2015-04-27 02:46:39,0.09,2.37,0.00,23.47,27.14,30.01,4.78,26.49,1010.27,2032.95,2551.15,2681.04,2909.02,350.22,345.31,21.61,0000 0000 0000 0000 000000
2015-04-27 02:51:40,0.11,2.38,0.00,23.48,27.14,30.00,4.78,26.52,1010.29,2032.95,2550.27,2680.41,2908.33,350.58,345.72,21.64,0000 0000 0000 0000 000000
2015-04-27 02:56:41,0.06,2.38,0.00,23.51,27.14,29.99,4.70,26.42,1010.33,2032.93,2549.41,2679.94,2907.69,349.56,344.50,21.67,0000 0000 0000 0000 000000
2015-04-27 03:01:42,0.09,2.38,0.00,23.52,27.14,30.01,4.79,26.52,1010.33,2032.87,2548.51,2679.13,2906.97,350.09,345.01,21.70,0000 0000 0000 0000 000000
2015-04-27 03:06:43,0.11,2.38,0.00,23.53,27.14,30.00,4.81,26.60,1010.38,2032.86,2547.64,2678.58,2906.17,350.63,345.22,21.73,0000 0000 0000 0000 000000
2015-04-27 03:11:44,0.08,2.39,0.00,23.55,27.15,29.97,4.72,26.46,1010.34,2032.88,2546.71,2677.95,2905.61,350.21,345.03,21.76,0000 0000 0000 0000 000000
2015-04-27 03:16:45,0.09,2.39,0.00,23.55,27.15,29.97,4.79,26.46,1010.30,2032.90,2545.78,2677.18,2905.00,350.46,345.21,21.78,0000 0000 0000 0000 000000
2015-04-27 03:21:46,0.07,2.39,0.00,23.56,27.15,29.97,4.81,26.55,1010.29,2032.89,2545.02,2676.78,2904.27,349.70,344.57,21.81,0000 0000 0000 0000 000000
2015-04-27 03:26:48,0.10,2.40,0.00,23.60,27.15,29.95,4.81,26.46,1010.29,2032.94,2544.18,2676.06,2903.83,350.53,345.62,21.84,0000 0000 0000 0000 000000
2015-04-27 03:31:49,0.09,2.40,0.00,23.62,27.15,29.95,4.71,26.39,1010.29,2032.95,2543.50,2675.67,2903.06,349.78,344.64,21.87,0000 0000 0000 0000 000000
2015-04-27 03:36:51,0.09,2.40,0.00,23.62,27.15,29.96,4.73,26.49,1010.28,2032.94,2542.55,2675.01,2902.40,350.04,344.73,21.90,0000 0000 0000 0000 000000
2015-04-27 03:41:52,0.05,2.40,0.00,23.64,27.15,29.95,4.71,26.41,1010.29,2032.92,2541.97,2674.65,2901.99,350.05,344.76,21.93,0000 0000 0000 0000 000000
2015-04-27 03:46:53,0.09,2.41,0.00,23.66,27.15,29.94,4.71,26.57,1010.33,2032.92,2541.18,2674.01,2901.34,349.48,344.40,21.96,0000 0000 0000 0000 000000
2015-04-27 03:51:55,0.08,2.41,0.00,23.67,27.15,29.91,4.76,26.52,1010.31,2032.92,2540.45,2673.56,2900.90,349.87,344.48,21.99,0000 0000 0000 0000 000000
2015-04-27 03:56:56,0.06,2.41,0.00,23.69,27.15,29.94,4.78,26.64,1010.30,2032.87,2539.82,2673.01,2900.10,350.19,344.88,22.02,0000 0000 0000 0000 000000
2015-04-27 04:01:57,0.07,2.41,0.00,23.73,27.15,29.89,4.78,26.63,1010.31,2032.93,2539.04,2672.71,2899.92,350.44,345.12,22.05,0000 0000 0000 0000 000000
2015-04-27 04:06:58,0.10,2.42,0.00,23.74,27.15,29.91,4.77,26.46,1010.40,2032.98,2538.23,2672.05,2899.16,350.30,344.96,22.08,0000 0000 0000 0000 000000
2015-04-27 04:11:59,0.07,2.42,0.00,23.75,27.16,29.87,4.78,26.48,1010.43,2032.93,2537.49,2671.62,2898.74,350.04,344.73,22.11,0000 0000 0000 0000 000000
2015-04-27 04:17:00,0.06,2.42,0.00,23.78,27.17,29.84,4.73,26.50,1010.43,2032.87,2536.75,2671.01,2898.03,350.08,344.71,22.14,0000 0000 0000 0000 000000
2015-04-27 04:22:02,0.09,2.42,0.00,23.80,27.17,29.87,4.77,26.49,1010.56,2032.96,2536.02,2670.61,2897.65,350.34,345.09,22.17,0000 0000 0000 0000 000000
2015-04-27 04:27:03,0.04,2.42,0.00,23.80,27.17,29.84,4.81,26.64,1010.62,2032.87,2535.22,2670.01,2897.00,350.35,344.95,22.19,0000 0000 0000 0000 000000
2015-04-27 04:32:04,0.11,2.43,0.00,23.83,27.18,29.82,4.72,26.47,1010.51,2032.92,2534.63,2669.62,2896.46,350.38,345.01,22.22,0000 0000 0000 0000 000000
2015-04-27 04:37:06,0.04,2.43,0.00,23.85,27.19,29.83,4.76,26.42,1010.47,2032.91,2533.83,2669.02,2895.97,350.13,344.71,22.25,0000 0000 0000 0000 000000
2015-04-27 04:42:07,0.07,2.43,0.00,23.86,27.20,29.82,4.83,26.42,1010.57,2032.90,2533.07,2668.79,2895.38,350.60,345.24,22.28,0000 0000 0000 0000 000000
2015-04-27 04:47:08,0.06,2.43,0.00,23.87,27.20,29.84,4.79,26.39,1010.73,2032.86,2532.60,2668.06,2894.99,350.14,344.74,22.31,0000 0000 0000 0000 000000
2015-04-27 04:52:09,0.07,2.43,0.00,23.90,27.20,29.86,4.73,26.47,1010.75,2032.80,2531.86,2667.72,2894.24,350.07,344.62,22.34,0000 0000 0000 0000 000000
2015-04-27 04:57:11,0.06,2.44,0.00,23.92,27.22,29.82,4.75,26.47,1010.73,2032.69,2531.03,2667.03,2893.89,349.93,344.48,22.37,0000 0000 0000 0000 000000
2015-04-27 05:02:12,0.08,2.44,0.00,23.92,27.22,29.83,4.76,26.27,1010.54,2032.63,2530.19,2666.62,2893.08,349.92,344.47,22.40,0000 0000 0000 0000 000000
2015-04-27 05:07:13,0.05,2.44,0.00,23.93,27.22,29.84,4.73,26.47,1010.35,2032.49,2529.55,2666.02,2892.69,350.31,344.81,22.43,0000 0000 0000 0000 000000
2015-04-27 05:12:14,0.04,2.44,0.00,23.97,27.23,29.85,4.75,26.38,1010.37,2032.33,2528.78,2665.51,2892.00,350.20,344.87,22.46,0000 0000 0000 0000 000000
2015-04-27 05:17:16,0.05,2.44,0.00,23.97,27.25,29.85,4.73,26.48,1010.45,2032.16,2527.98,2664.99,2891.27,350.23,344.74,22.49,0000 0000 0000 0000 000000
2015-04-27 05:22:17,0.09,2.45,0.00,23.97,27.25,29.85,4.75,26.43,1010.45,2032.18,2527.14,2664.33,2890.91,350.24,344.64,22.52,0000 0000 0000 0000 000000
2015-04-27 05:27:18,0.05,2.45,0.00,23.97,27.25,29.86,4.67,26.32,1010.43,2032.09,2526.23,2663.97,2890.10,350.39,344.63,22.55,0000 0000 0000 0000 000000
2015-04-27 05:32:19,0.08,2.45,0.00,23.98,27.27,29.98,4.76,26.46,1010.45,2032.03,2525.65,2663.22,2889.69,350.23,344.69,22.58,0000 0000 0000 0000 000000
2015-04-27 05:37:21,0.06,2.45,0.00,23.93,27.27,30.11,4.69,26.43,1010.42,2032.02,2524.83,2662.82,2889.03,350.40,344.79,22.60,0000 0000 0000 0000 000000
2015-04-27 05:42:22,0.09,2.46,0.00,23.99,27.28,29.95,4.70,26.52,1010.38,2032.07,2524.10,2662.12,2888.64,350.11,344.51,22.63,0000 0000 0000 0000 000000
2015-04-27 05:47:23,0.04,2.46,0.00,24.15,27.31,29.75,4.64,26.43,1010.35,2032.01,2523.64,2661.85,2888.01,349.94,344.33,22.66,0000 0000 0000 0000 000000
2015-04-27 05:52:25,0.09,2.46,0.00,24.44,27.34,29.76,4.66,26.53,1010.42,2032.00,2522.92,2661.07,2887.36,350.25,344.12,22.69,0000 0000 0000 0000 000000
2015-04-27 05:57:26,0.11,2.46,0.00,24.42,27.38,29.83,4.66,26.58,1010.64,2032.00,2522.05,2660.56,2886.68,349.75,343.85,22.72,0000 0000 0000 0000 000000
2015-04-27 06:02:27,0.07,2.46,0.00,24.37,27.42,29.91,4.77,26.51,1010.68,2032.00,2521.16,2659.93,2885.95,349.92,343.96,22.75,0000 0000 0000 0000 000000
2015-04-27 06:07:29,0.11,2.47,0.00,24.40,27.47,29.99,4.71,26.41,1010.73,2031.96,2520.37,2659.11,2885.13,350.27,344.18,22.78,0000 0000 0000 0000 000000
2015-04-27 06:12:30,0.04,2.47,0.00,24.41,27.51,30.06,4.79,26.31,1010.74,2031.78,2519.69,2658.68,2884.61,350.19,344.26,22.81,0000 0000 0000 0000 000000
2015-04-27 06:17:31,-0.00,2.47,0.00,24.37,27.54,30.13,4.65,26.32,1010.75,2031.33,2518.94,2658.02,2883.98,349.53,343.72,22.84,0000 0000 0000 0000 000000
2015-04-27 06:22:32,0.07,2.47,0.00,24.32,27.57,30.21,4.73,26.32,1010.73,2031.14,2518.09,2657.56,2883.31,349.87,343.85,22.87,0000 0000 0000 0000 000000
2015-04-27 06:27:33,0.04,2.47,0.00,24.27,27.60,30.27,4.70,26.47,1010.71,2031.05,2517.46,2657.02,2882.94,350.21,344.27,22.90,0000 0000 0000 0000 000000
2015-04-27 06:32:35,0.10,2.47,0.00,24.21,27.62,30.31,4.77,26.42,1010.73,2031.02,2516.81,2656.52,2882.13,350.38,344.84,22.93,0000 0000 0000 0000 000000
2015-04-27 06:37:36,0.05,2.48,0.00,24.15,27.63,30.35,4.81,26.39,1010.76,2031.01,2516.03,2656.01,2881.71,350.41,344.74,22.96,0000 0000 0000 0000 000000
2015-04-27 06:42:37,0.09,2.48,0.00,24.12,27.65,30.39,4.67,26.38,1010.76,2031.00,2515.25,2655.50,2881.02,349.51,343.74,22.99,0000 0000 0000 0000 000000
2015-04-27 06:47:38,0.06,2.48,0.00,24.10,27.65,30.43,4.73,26.50,1010.76,2031.00,2514.65,2655.00,2880.57,350.01,344.38,23.01,0000 0000 0000 0000 000000
2015-04-27 06:52:39,0.07,2.48,0.00,24.05,27.65,30.48,4.67,26.41,1010.76,2030.99,2513.98,2654.46,2880.01,349.92,344.52,23.04,0000 0000 0000 0000 000000
2015-04-27 06:57:41,0.06,2.49,0.00,24.02,27.65,30.52,4.75,26.39,1010.76,2030.99,2513.19,2654.01,2879.69,350.38,344.88,23.07,0000 0000 0000 0000 000000
2015-04-27 07:02:42,0.08,2.49,0.00,23.99,27.65,30.53,4.80,26.38,1010.76,2030.99,2512.54,2653.66,2879.03,349.74,344.09,23.10,0000 0000 0000 0000 000000
2015-04-27 07:07:43,0.04,2.49,0.00,23.97,27.65,30.50,4.71,26.37,1010.76,2030.98,2511.86,2653.02,2878.78,349.74,344.30,23.13,0000 0000 0000 0000 000000
2015-04-27 07:12:45,0.08,2.49,0.00,23.95,27.65,30.51,4.72,26.45,1010.76,2030.98,2511.04,2652.74,2878.06,349.86,344.45,23.16,0000 0000 0000 0000 000000
2015-04-27 07:17:46,0.08,2.49,0.00,23.92,27.65,30.49,4.74,26.48,1010.76,2030.99,2510.34,2652.04,2877.75,350.19,344.67,23.19,0000 0000 0000 0000 000000
2015-04-27 07:22:47,0.05,2.50,0.00,23.92,27.65,30.50,4.80,26.37,1010.76,2030.98,2509.74,2651.87,2877.04,349.99,344.36,23.22,0000 0000 0000 0000 000000
2015-04-27 07:27:49,0.07,2.50,0.00,23.92,27.63,30.46,4.66,26.33,1010.76,2030.99,2509.04,2651.18,2876.88,349.70,344.52,23.25,0000 0000 0000 0000 000000
2015-04-27 07:32:50,0.07,2.50,0.00,23.90,27.62,30.45,4.75,26.50,1010.76,2030.99,2508.36,2650.99,2876.11,349.83,344.47,23.28,0000 0000 0000 0000 000000
2015-04-27 07:37:51,0.10,2.50,0.00,23.90,27.62,30.44,4.74,26.41,1010.76,2030.99,2507.64,2650.30,2875.79,349.96,344.69,23.31,0000 0000 0000 0000 000000
2015-04-27 07:42:53,0.03,2.51,0.00,23.91,27.61,30.43,4.77,26.40,1010.76,2030.99,2507.02,2649.99,2875.07,350.34,344.81,23.34,0000 0000 0000 0000 000000
2015-04-27 07:47:54,0.08,2.51,0.00,23.92,27.60,30.40,4.73,26.40,1010.76,2030.99,2506.36,2649.56,2874.91,349.83,344.53,23.37,0000 0000 0000 0000 000000
2015-04-27 07:52:56,0.05,2.51,0.00,23.92,27.60,30.40,4.71,26.40,1010.76,2030.99,2505.82,2649.02,2874.19,350.42,345.04,23.40,0000 0000 0000 0000 000000
2015-04-27 07:57:57,0.03,2.51,0.00,23.93,27.59,30.38,4.71,26.35,1010.76,2031.00,2505.05,2648.97,2873.99,350.11,344.73,23.42,0000 0000 0000 0000 000000
2015-04-27 08:02:58,0.11,2.51,0.00,23.94,27.57,30.37,4.72,26.41,1010.76,2031.00,2504.48,2648.21,2873.40,349.92,344.57,23.45,0000 0000 0000 0000 000000
2015-04-27 08:07:59,0.01,2.51,0.00,23.95,27.57,30.34,4.75,26.32,1010.76,2031.00,2503.95,2648.00,2873.00,350.40,345.20,23.48,0000 0000 0000 0000 000000
2015-04-27 08:13:01,0.10,2.52,0.00,23.94,27.56,30.33,4.73,26.38,1010.76,2031.01,2503.17,2647.60,2872.58,349.82,344.41,23.51,0000 0000 0000 0000 000000
2015-04-27 08:18:02,0.06,2.52,0.00,23.94,27.55,30.33,4.75,26.34,1010.76,2031.01,2502.63,2647.02,2872.02,349.80,344.45,23.54,0000 0000 0000 0000 000000
2015-04-27 08:23:03,0.02,2.52,0.00,23.94,27.55,30.31,4.75,26.42,1010.76,2031.00,2502.00,2646.93,2871.82,349.81,344.63,23.57,0000 0000 0000 0000 000000
2015-04-27 08:28:04,0.11,2.52,0.00,23.92,27.55,30.27,4.74,26.38,1010.77,2031.03,2501.31,2646.28,2871.12,349.59,344.28,23.60,0000 0000 0000 0000 000000
2015-04-27 08:33:05,0.06,2.52,0.00,23.92,27.54,30.28,4.74,26.41,1010.77,2031.05,2500.48,2645.95,2870.75,349.69,344.43,23.63,0000 0000 0000 0000 000000
2015-04-27 08:38:06,0.10,2.53,0.00,23.92,27.52,30.28,4.75,26.52,1010.77,2031.02,2499.46,2645.19,2870.04,349.78,344.24,23.66,0000 0000 0000 0000 000000
2015-04-27 08:43:08,0.03,2.53,0.00,23.90,27.52,30.28,4.76,26.36,1010.78,2031.11,2498.97,2645.00,2869.84,350.23,344.96,23.69,0000 0000 0000 0000 000000
2015-04-27 08:48:09,0.11,2.53,0.00,23.89,27.52,30.28,4.72,26.45,1010.77,2031.11,2498.21,2644.62,2869.09,350.11,344.93,23.72,0000 0000 0000 0000 000000
2015-04-27 08:53:10,0.05,2.53,0.00,23.87,27.52,30.28,4.74,26.47,1010.77,2031.16,2497.59,2644.02,2868.92,349.81,344.55,23.75,0000 0000 0000 0000 000000
2015-04-27 08:58:11,0.09,2.54,0.00,23.87,27.50,30.28,4.72,26.41,1010.77,2031.28,2497.01,2643.96,2868.14,350.00,344.74,23.78,0000 0000 0000 0000 000000
2015-04-27 09:03:13,0.12,2.54,0.00,23.85,27.50,30.27,4.69,26.37,1010.77,2031.55,2496.39,2643.26,2868.00,349.59,344.13,23.81,0000 0000 0000 0000 000000
2015-04-27 09:08:14,0.01,2.54,0.00,23.82,27.50,30.28,4.69,26.51,1010.79,2031.51,2495.98,2643.01,2867.67,350.13,344.86,23.84,0000 0000 0000 0000 000000
2015-04-27 09:13:15,0.08,2.54,0.00,23.82,27.50,30.29,4.81,26.43,1010.78,2031.47,2495.18,2642.70,2867.02,350.30,345.11,23.86,0000 0000 0000 0000 000000
2015-04-27 09:18:17,0.10,2.55,0.00,23.81,27.49,30.29,4.69,26.43,1010.77,2031.81,2494.98,2642.08,2866.95,349.35,344.13,23.89,0000 0000 0000 0000 000000
2015-04-27 09:23:17,0.07,2.55,0.00,23.77,27.47,30.29,4.82,26.48,1010.80,2031.89,2494.26,2642.00,2866.28,350.59,345.22,23.92,0000 0000 0000 0000 000000
2015-04-27 09:28:19,0.04,2.55,0.00,23.75,27.47,30.27,4.75,26.44,1010.79,2031.93,2493.89,2641.68,2866.00,349.99,344.83,23.95,0000 0000 0000 0000 000000
2015-04-27 09:33:20,0.08,2.55,0.00,23.75,27.47,30.28,4.72,26.39,1010.77,2031.97,2493.11,2641.08,2865.76,349.54,344.44,23.98,0000 0000 0000 0000 000000
2015-04-27 09:38:21,0.05,2.55,0.00,23.72,27.45,30.28,4.76,26.43,1010.77,2031.96,2492.50,2640.98,2865.04,350.09,344.94,24.01,0000 0000 0000 0000 000000
2015-04-27 09:43:22,0.04,2.56,0.00,23.70,27.45,30.28,4.68,26.46,1010.77,2031.96,2492.01,2640.53,2864.98,349.46,344.34,24.04,0000 0000 0000 0000 000000
2015-04-27 09:48:24,0.08,2.56,0.00,23.69,27.45,30.27,4.78,26.43,1010.76,2031.98,2491.56,2640.04,2864.37,349.76,344.72,24.07,0000 0000 0000 0000 000000
2015-04-27 09:53:25,0.01,2.56,0.00,23.68,27.44,30.26,4.80,26.48,1010.77,2031.99,2490.99,2639.99,2864.00,350.12,345.18,24.10,0000 0000 0000 0000 000000
2015-04-27 09:58:27,0.09,2.56,0.00,23.66,27.42,30.26,4.77,26.43,1010.76,2031.99,2490.32,2639.50,2863.82,349.65,344.53,24.13,0000 0000 0000 0000 000000
2015-04-27 10:03:28,0.04,2.56,0.00,23.65,27.42,30.26,4.77,26.51,1010.79,2031.99,2489.92,2639.02,2863.09,350.04,344.84,24.16,0000 0000 0000 0000 000000
2015-04-27 10:08:29,0.04,2.56,0.00,23.67,27.42,30.23,4.77,26.44,1010.77,2031.99,2489.10,2638.90,2862.93,350.17,344.97,24.19,0000 0000 0000 0000 000000
2015-04-27 10:13:31,0.08,2.57,0.00,23.67,27.42,30.20,4.80,26.43,1010.77,2031.99,2488.79,2638.14,2862.17,350.77,345.67,24.22,0000 0000 0000 0000 000000
2015-04-27 10:18:32,0.03,2.57,0.00,23.66,27.41,30.16,4.73,26.43,1010.78,2031.99,2488.04,2637.99,2861.99,349.74,344.86,24.25,0000 0000 0000 0000 000000
2015-04-27 10:23:33,0.07,2.57,0.00,23.67,27.40,30.14,4.75,26.48,1010.77,2031.99,2487.65,2637.73,2861.64,350.02,345.19,24.27,0000 0000 0000 0000 000000
2015-04-27 10:28:35,0.06,2.57,0.00,23.67,27.40,30.12,4.79,26.51,1010.76,2031.99,2487.01,2637.08,2861.04,349.94,345.05,24.30,0000 0000 0000 0000 000000
2015-04-27 10:33:36,0.02,2.57,0.00,23.65,27.40,30.12,4.72,26.38,1010.76,2031.99,2486.67,2636.99,2860.93,350.20,345.13,24.33,0000 0000 0000 0000 000000
2015-04-27 10:38:37,0.06,2.57,0.00,23.64,27.40,30.11,4.87,26.63,1010.77,2031.99,2486.04,2636.87,2860.29,350.46,345.49,24.36,0000 0000 0000 0000 000000
2015-04-27 10:43:38,0.05,2.58,0.00,23.65,27.40,30.10,4.81,26.42,1010.77,2031.99,2485.92,2636.27,2860.03,350.62,345.56,24.39,0000 0000 0000 0000 000000
2015-04-27 10:48:39,0.03,2.58,0.00,23.64,27.40,30.05,4.72,26.49,1010.77,2031.99,2485.20,2636.00,2859.97,349.81,344.57,24.42,0000 0000 0000 0000 000000
2015-04-27 10:53:41,0.04,2.58,0.00,23.65,27.39,30.12,4.81,26.44,1010.77,2031.99,2484.84,2635.94,2859.26,350.53,345.38,24.45,0000 0000 0000 0000 000000
2015-04-27 10:58:42,0.08,2.58,0.00,23.70,27.39,30.04,4.71,26.42,1010.78,2031.99,2484.10,2635.23,2859.00,350.08,345.03,24.48,0000 0000 0000 0000 000000
2015-04-27 11:03:43,0.04,2.58,0.00,23.78,27.38,29.92,4.77,26.52,1010.86,2031.99,2483.69,2635.00,2858.71,350.40,345.33,24.51,0000 0000 0000 0000 000000
2015-04-27 11:08:44,0.05,2.58,0.00,23.83,27.37,29.91,4.76,26.48,1010.90,2031.99,2483.02,2634.74,2858.05,350.08,344.76,24.54,0000 0000 0000 0000 000000
2015-04-27 11:13:45,0.07,2.59,0.00,23.84,27.37,29.92,4.71,26.40,1010.82,2031.99,2482.49,2634.11,2857.97,349.91,344.40,24.57,0000 0000 0000 0000 000000
2015-04-27 11:18:47,0.03,2.59,0.00,23.81,27.37,29.95,4.80,26.44,1010.78,2031.99,2482.00,2633.99,2857.37,350.28,345.10,24.60,0000 0000 0000 0000 000000
2015-04-27 11:23:48,0.04,2.59,0.00,23.76,27.37,30.01,4.73,26.41,1010.80,2031.99,2481.49,2633.78,2857.01,349.51,344.30,24.63,0000 0000 0000 0000 000000
2015-04-27 11:28:49,0.06,2.59,0.00,23.70,27.37,30.06,4.69,26.42,1010.80,2031.99,2481.01,2633.09,2856.88,350.33,345.31,24.66,0000 0000 0000 0000 000000
2015-04-27 11:33:50,0.06,2.59,0.00,23.63,27.37,30.16,4.72,26.36,1010.83,2031.99,2480.45,2633.00,2856.19,349.85,344.98,24.68,0000 0000 0000 0000 000000
2015-04-27 11:38:52,0.02,2.59,0.00,23.54,27.36,30.22,4.80,26.49,1010.92,2031.99,2480.00,2632.80,2856.00,350.18,345.51,24.71,0000 0000 0000 0000 000000
2015-04-27 11:43:53,0.08,2.59,0.00,23.48,27.35,30.24,4.74,26.51,1010.85,2031.99,2479.60,2632.14,2855.74,350.20,345.32,24.74,0000 0000 0000 0000 000000
2015-04-27 11:48:55,0.10,2.60,0.00,23.42,27.35,30.27,4.81,26.51,1010.87,2031.99,2478.54,2631.71,2854.88,349.83,345.20,24.77,0000 0000 0000 0000 000000
2015-04-27 11:53:56,0.16,2.60,0.00,23.35,27.35,30.22,4.82,26.47,1010.90,2032.00,2477.25,2630.73,2853.73,350.45,345.74,24.80,0000 0000 0000 0000 000000
2015-04-27 11:58:57,0.18,2.61,0.00,23.31,27.33,30.21,4.81,26.48,1011.01,2032.00,2475.62,2629.63,2852.49,350.29,345.79,24.83,0000 0000 0000 0000 000000
2015-04-27 12:03:59,0.22,2.61,0.00,23.27,27.32,30.20,4.78,26.53,1011.06,2032.00,2473.72,2628.16,2850.77,350.13,345.67,24.86,0000 0000 0000 0000 000000
2015-04-27 12:09:00,0.22,2.62,0.00,23.23,27.31,30.21,4.74,26.48,1010.92,2032.00,2471.80,2626.71,2849.18,350.25,345.76,24.89,0000 0000 0000 0000 000000
2015-04-27 12:14:02,0.21,2.63,0.00,23.19,27.30,30.18,4.78,26.45,1010.97,2032.00,2469.83,2625.32,2847.56,350.08,345.69,24.92,0000 0000 0000 0000 000000
2015-04-27 12:19:03,0.24,2.63,0.00,23.16,27.30,30.17,4.78,26.45,1010.92,2032.01,2467.99,2623.81,2845.80,350.05,345.68,24.95,0000 0000 0000 0000 000000
2015-04-27 12:24:04,0.25,2.64,0.00,23.11,27.28,30.18,4.76,26.56,1010.91,2032.02,2465.93,2622.27,2843.90,350.48,346.08,24.98,0000 0000 0000 0000 000000
2015-04-27 12:29:05,0.25,2.65,0.00,23.09,27.27,30.17,4.71,26.34,1011.04,2032.04,2464.04,2620.52,2841.89,349.79,345.41,25.01,0000 0000 0000 0000 000000
2015-04-27 12:34:07,0.18,2.65,0.00,23.06,27.25,30.14,4.79,26.50,1010.85,2032.02,2462.28,2619.13,2840.36,350.03,345.50,25.04,0000 0000 0000 0000 000000
2015-04-27 12:39:08,0.17,2.66,0.00,23.02,27.25,30.11,4.78,26.56,1010.79,2032.01,2460.65,2618.08,2839.18,349.83,345.70,25.07,0000 0000 0000 0000 000000
2015-04-27 12:44:09,0.17,2.67,0.00,22.99,27.23,30.09,4.76,26.41,1010.79,2032.03,2459.32,2617.03,2838.10,349.88,345.82,25.10,0000 0000 0000 0000 000000
2015-04-27 12:49:11,0.23,2.67,0.00,22.97,27.22,30.10,4.79,26.49,1010.78,2032.06,2457.45,2615.57,2836.43,350.35,345.98,25.12,0000 0000 0000 0000 000000
2015-04-27 12:54:12,0.32,2.68,0.00,22.98,27.20,30.05,4.77,26.41,1010.77,2032.12,2455.20,2613.57,2834.28,350.16,345.91,25.15,0000 0000 0000 0000 000000
2015-04-27 12:59:13,0.36,2.69,0.00,23.18,27.20,30.01,4.73,26.52,1010.77,2032.20,2452.71,2611.18,2831.62,349.78,345.38,25.18,0000 0000 0000 0000 000000